Regional Weather Roundup
Issued by NWS

Home | Current Version | Previous Version | Text Only | Print | Product List | Glossary Off
Versions: 1 2 3 4 5 6 7 8 9 10 11 12 13 14 15 16 17 18 19 20 21 22 23 24 25 26 27 28

000
ASUS45 KCYS 291410
RWRWY

WYOMING REGIONAL WEATHER ROUNDUP
NATIONAL WEATHER SERVICE CHEYENNE WY
800 AM MDT FRI APR 29 2016

NOTE:  "FAIR" INDICATES FEW OR NO CLOUDS BELOW 12,000 FEET
WITH NO SIGNIFICANT WEATHER AND/OR OBSTRUCTIONS TO VISIBILITY.

WYZ001-291500-
YELLOWSTONE NATIONAL PARK

CITY           SKY/WX    TMP DP  RH WIND       PRES   REMARKS
LK YELLOWSTONE   N/A     27  21  78 CALM      29.94F
W YELLOWSTONE  NOT AVBL

$$
WYZ002>013-054>058-071-098>099-291500-
NORTHERN WYOMING

CITY           SKY/WX    TMP DP  RH WIND       PRES   REMARKS
JACKSON        PTSUNNY   34  30  86 CALM      29.93S
CODY           CLOUDY    36  30  80 CALM      29.99S
GREYBULL       CLOUDY    41  28  60 SE7       30.00F
WORLAND        CLOUDY    39  31  72 E5        30.00S
SHERIDAN       CLOUDY    39  33  79 S6        30.03R WCI  35
BUFFALO          N/A    N/A N/A N/A MISG      30.03F
GILLETTE       CLOUDY    36  33  89 S9        30.04F WCI  29
HULETT         CLOUDY    37  34  87 N3        30.08F
NEWCASTLE      CLOUDY    32  32 100 S3        30.06F FOG

$$
WYZ014>020-022>026-101>103-291500-
CENTRAL WYOMING

CITY           SKY/WX    TMP DP  RH WIND       PRES   REMARKS
BIG PINEY      CLOUDY    31  24  75 CALM      29.94S
PINEDALE       CLOUDY    30  28  93 MISG      29.93S
DUBOIS         CLOUDY    27  25  93 SE6       29.96S FOG     WCI  20
LANDER         CLOUDY    33  28  81 NW5       29.98R WCI  29
RIVERTON       CLOUDY    35  29  78 NE8       29.99S WCI  29
CASPER         CLOUDY    33  30  88 E9        29.98F WCI  25
DOUGLAS        CLOUDY    34  32  92 SE12      30.04S WCI  25

$$
WYZ021-027>030-104>119-291500-
SOUTHERN WYOMING

CITY           SKY/WX    TMP DP  RH WIND       PRES   REMARKS
EVANSTON       CLOUDY    31  27  85 NE8       29.90S WCI  23
FORT BRIDGER   CLOUDY    32  32 100 E6        29.95R WCI  26
ROCK SPRINGS   LGT SNOW  30  26  85 NE16      29.91S FOG     WCI  19
DIXON          CLOUDY    37  32  83 CALM      29.89R
RAWLINS        CLOUDY    32  28  85 NE16      29.91F WCI  21
SARATOGA       CLOUDY    30  30 100 N10       29.90R WCI  21
LARAMIE        PTSUNNY   29  26  89 SE18      29.91F WCI  16
CHEYENNE       FOG       31  31 100 SE9       29.97F VSB<1/4 WCI  23
TORRINGTON     CLOUDY    36  34  92 SE7       30.03R WCI  30
PINE BLUFFS    CLOUDY    32  32 100 E3        30.01F FOG

$$




USA.gov is the U.S. government's official web portal to all federal, state and local government web resources and services.